Location: Arezzo
(43.4170°N, 11.8830°E)
Time: 01:22:04
(UTC+02:00)

ISS - Visible Passes

Search period start: 22 October 2019 00:00
Search period end: 31 October 2019 23:00
Orbit: 411 x 421 km, 51.6° (Epoch: 21 October)

Date Brightness Start Highest point End Pass type
(mag) Time Alt. Az. Time Alt. Az. Time Alt. Az.
22 Oct -0.5 06:50:25 10° SSE 06:51:52 12° SE 06:53:20 10° ESE visible
24 Oct -1.9 06:48:05 10° SSW 06:51:06 31° SE 06:54:08 10° ENE visible
25 Oct -1.2 06:00:12 10° S 06:02:39 19° SE 06:05:07 10° E visible
26 Oct -0.7 05:13:48 11° SE 05:14:15 11° SE 05:15:22 10° ESE visible
26 Oct -3.7 06:47:07 10° SW 06:50:29 84° SSE 06:53:51 10° ENE visible
27 Oct -3.0 05:00:46 33° SSW 05:01:55 49° SE 05:05:11 10° ENE visible
28 Oct -1.3 04:14:37 22° E 04:14:37 22° E 04:16:21 10° ENE visible
28 Oct -3.2 05:47:32 15° W 05:50:01 43° NNW 05:53:16 10° NE visible
29 Oct -3.8 05:01:15 66° NW 05:01:19 66° NNW 05:04:40 10° NE visible
30 Oct -1.2 04:14:49 20° ENE 04:14:49 20° ENE 04:16:02 10° ENE visible
30 Oct -2.4 05:47:44 16° WNW 05:49:40 26° NNW 05:52:35 10° NE visible
31 Oct -2.6 05:01:13 32° N 05:01:13 32° N 05:03:58 10° NE visible
